Information on these data can be found in provided Readme document
Contact Info: Zachary Fasnacht (zachary.fasnacht@ssaihq.com); Nickolay Krotkov (nickolay.a.krotkov@nasa.gov); Lok Lamsal (lok.lamsal@nasa.gov)

FillValue: -999.
ScaleFactor: 1e15
Units: molecules/cm^2

Date(yyyy-mm-dd),City,Country,LonCenter,LatCenter,BoundingCoordinates,Median,Q1,Q3,Mean,Baseline_Median,Baseline_Q1,Baseline_Q3,Baseline_Mean,NumGoodSamples,NumTotalSamples
2015-01-01,Jakarta,Indonesia,106.8001,-6.2667,[106.3001 -6.7667 107.3001 -5.7667],1.332,0.952,2.255,1.535,1.536,0.815,2.533,1.886,46.0,524.0
2015-01-02,Jakarta,Indonesia,106.8001,-6.2667,[106.3001 -6.7667 107.3001 -5.7667],1.544,0.617,2.363,1.702,1.582,0.761,2.55,1.907,71.0,552.0
2015-01-03,Jakarta,Indonesia,106.8001,-6.2667,[106.3001 -6.7667 107.3001 -5.7667],1.246,0.501,2.131,1.502,1.518,0.696,2.611,1.869,67.0,536.0
2015-01-04,Jakarta,Indonesia,106.8001,-6.2667,[106.3001 -6.7667 107.3001 -5.7667],1.174,0.403,2.177,1.437,1.533,0.734,2.605,1.872,97.0,535.0
2015-01-05,Jakarta,Indonesia,106.8001,-6.2667,[106.3001 -6.7667 107.3001 -5.7667],1.174,0.403,2.177,1.437,1.494,0.696,2.594,1.87,97.0,549.0
2015-01-06,Jakarta,Indonesia,106.8001,-6.2667,[106.3001 -6.7667 107.3001 -5.7667],1.174,0.403,2.177,1.437,1.483,0.672,2.579,1.845,97.0,524.0
2015-01-07,Jakarta,Indonesia,106.8001,-6.2667,[106.3001 -6.7667 107.3001 -5.7667],1.269,0.471,2.312,1.492,1.533,0.672,2.642,1.875,95.0,541.0
2015-01-08,Jakarta,Indonesia,106.8001,-6.2667,[106.3001 -6.7667 107.3001 -5.7667],1.021,0.425,2.312,1.358,1.532,0.687,2.715,1.922,113.0,520.0
2015-01-09,Jakarta,Indonesia,106.8001,-6.2667,[106.3001 -6.7667 107.3001 -5.7667],1.021,0.425,2.312,1.358,1.538,0.724,2.74,1.919,113.0,551.0
2015-01-10,Jakarta,Indonesia,106.8001,-6.2667,[106.3001 -6.7667 107.3001 -5.7667],0.995,0.403,2.343,1.351,1.513,0.738,2.752,1.939,108.0,510.0
2015-01-11,Jakarta,Indonesia,106.8001,-6.2667,[106.3001 -6.7667 107.3001 -5.7667],0.995,0.409,2.343,1.336,1.538,0.711,2.815,1.905,111.0,522.0
2015-01-12,Jakarta,Indonesia,106.8001,-6.2667,[106.3001 -6.7667 107.3001 -5.7667],0.995,0.409,2.343,1.336,1.565,0.724,2.884,1.947,111.0,520.0
2015-01-13,Jakarta,Indonesia,106.8001,-6.2667,[106.3001 -6.7667 107.3001 -5.7667],0.995,0.425,2.584,1.381,1.564,0.732,2.887,1.934,98.0,510.0
2015-01-14,Jakarta,Indonesia,106.8001,-6.2667,[106.3001 -6.7667 107.3001 -5.7667],0.995,0.434,2.584,1.415,1.543,0.699,2.947,1.924,109.0,531.0
2015-01-15,Jakarta,Indonesia,106.8001,-6.2667,[106.3001 -6.7667 107.3001 -5.7667],0.995,0.434,2.584,1.415,1.448,0.678,2.672,1.735,109.0,501.0
2015-01-16,Jakarta,Indonesia,106.8001,-6.2667,[106.3001 -6.7667 107.3001 -5.7667],0.981,0.409,2.584,1.391,1.458,0.675,2.616,1.648,105.0,523.0
2015-01-17,Jakarta,Indonesia,106.8001,-6.2667,[106.3001 -6.7667 107.3001 -5.7667],0.806,0.434,2.312,1.248,1.281,0.591,2.428,1.58,84.0,508.0
2015-01-18,Jakarta,Indonesia,106.8001,-6.2667,[106.3001 -6.7667 107.3001 -5.7667],0.788,0.434,2.177,1.236,1.271,0.609,2.484,1.559,96.0,533.0
2015-01-19,Jakarta,Indonesia,106.8001,-6.2667,[106.3001 -6.7667 107.3001 -5.7667],0.788,0.437,2.116,1.218,1.116,0.473,2.316,1.46,66.0,519.0
2015-01-20,Jakarta,Indonesia,106.8001,-6.2667,[106.3001 -6.7667 107.3001 -5.7667],0.806,0.451,2.116,1.244,1.224,0.539,2.477,1.539,70.0,517.0
2015-01-21,Jakarta,Indonesia,106.8001,-6.2667,[106.3001 -6.7667 107.3001 -5.7667],0.97,0.485,2.412,1.397,1.261,0.64,2.571,1.604,86.0,531.0
2015-01-22,Jakarta,Indonesia,106.8001,-6.2667,[106.3001 -6.7667 107.3001 -5.7667],1.472,0.511,2.66,1.744,1.503,0.649,2.747,1.761,96.0,508.0
2015-01-23,Jakarta,Indonesia,106.8001,-6.2667,[106.3001 -6.7667 107.3001 -5.7667],1.588,0.716,2.718,2.005,1.544,0.755,2.498,1.751,78.0,525.0
2015-01-24,Jakarta,Indonesia,106.8001,-6.2667,[106.3001 -6.7667 107.3001 -5.7667],1.526,0.7,2.66,1.924,1.539,0.795,2.58,1.781,81.0,504.0
2015-01-25,Jakarta,Indonesia,106.8001,-6.2667,[106.3001 -6.7667 107.3001 -5.7667],1.526,0.7,2.66,1.924,1.541,0.797,2.479,1.762,81.0,558.0
2015-01-26,Jakarta,Indonesia,106.8001,-6.2667,[106.3001 -6.7667 107.3001 -5.7667],1.478,0.7,2.66,1.832,1.548,0.764,2.385,1.741,87.0,539.0
2015-01-27,Jakarta,Indonesia,106.8001,-6.2667,[106.3001 -6.7667 107.3001 -5.7667],1.478,0.716,2.66,1.837,1.514,0.764,2.379,1.723,90.0,553.0
2015-01-28,Jakarta,Indonesia,106.8001,-6.2667,[106.3001 -6.7667 107.3001 -5.7667],1.497,0.716,2.636,1.834,1.558,0.766,2.393,1.711,95.0,552.0
2015-01-29,Jakarta,Indonesia,106.8001,-6.2667,[106.3001 -6.7667 107.3001 -5.7667],1.465,0.716,2.467,1.804,1.528,0.795,2.324,1.695,91.0,541.0
2015-01-30,Jakarta,Indonesia,106.8001,-6.2667,[106.3001 -6.7667 107.3001 -5.7667],1.526,0.716,2.47,1.842,1.554,0.777,2.359,1.708,106.0,559.0
2015-01-31,Jakarta,Indonesia,106.8001,-6.2667,[106.3001 -6.7667 107.3001 -5.7667],1.561,0.812,2.467,1.819,1.639,0.855,2.408,1.777,117.0,529.0
2015-02-01,Jakarta,Indonesia,106.8001,-6.2667,[106.3001 -6.7667 107.3001 -5.7667],1.738,0.884,2.559,1.993,1.69,0.902,2.508,1.838,102.0,549.0
2015-02-02,Jakarta,Indonesia,106.8001,-6.2667,[106.3001 -6.7667 107.3001 -5.7667],1.769,0.99,2.559,2.053,1.712,0.951,2.515,1.857,83.0,533.0
2015-02-03,Jakarta,Indonesia,106.8001,-6.2667,[106.3001 -6.7667 107.3001 -5.7667],1.826,0.99,2.636,2.068,1.749,0.983,2.547,1.897,90.0,560.0
2015-02-04,Jakarta,Indonesia,106.8001,-6.2667,[106.3001 -6.7667 107.3001 -5.7667],1.826,0.99,2.598,2.073,1.657,0.885,2.559,1.844,86.0,546.0
2015-02-05,Jakarta,Indonesia,106.8001,-6.2667,[106.3001 -6.7667 107.3001 -5.7667],1.768,0.879,2.559,2.001,1.616,0.842,2.54,1.811,74.0,548.0
2015-02-06,Jakarta,Indonesia,106.8001,-6.2667,[106.3001 -6.7667 107.3001 -5.7667],1.245,0.812,2.216,1.553,1.436,0.718,2.333,1.609,70.0,560.0
2015-02-07,Jakarta,Indonesia,106.8001,-6.2667,[106.3001 -6.7667 107.3001 -5.7667],1.129,0.754,2.158,1.372,1.373,0.726,2.369,1.564,82.0,536.0
2015-02-08,Jakarta,Indonesia,106.8001,-6.2667,[106.3001 -6.7667 107.3001 -5.7667],1.142,0.776,2.216,1.417,1.338,0.7,2.334,1.541,79.0,553.0
2015-02-09,Jakarta,Indonesia,106.8001,-6.2667,[106.3001 -6.7667 107.3001 -5.7667],1.129,0.701,2.057,1.413,1.327,0.699,2.226,1.545,94.0,532.0
2015-02-10,Jakarta,Indonesia,106.8001,-6.2667,[106.3001 -6.7667 107.3001 -5.7667],1.134,0.754,2.216,1.465,1.313,0.734,2.373,1.574,85.0,562.0
2015-02-11,Jakarta,Indonesia,106.8001,-6.2667,[106.3001 -6.7667 107.3001 -5.7667],1.134,0.701,2.216,1.45,1.312,0.711,2.334,1.575,82.0,519.0
2015-02-12,Jakarta,Indonesia,106.8001,-6.2667,[106.3001 -6.7667 107.3001 -5.7667],1.129,0.701,2.216,1.438,1.365,0.715,2.409,1.609,77.0,530.0
2015-02-13,Jakarta,Indonesia,106.8001,-6.2667,[106.3001 -6.7667 107.3001 -5.7667],1.134,0.701,2.216,1.447,1.35,0.678,2.392,1.623,70.0,529.0
2015-02-14,Jakarta,Indonesia,106.8001,-6.2667,[106.3001 -6.7667 107.3001 -5.7667],1.297,0.701,2.222,1.647,1.34,0.647,2.375,1.652,81.0,518.0
2015-02-15,Jakarta,Indonesia,106.8001,-6.2667,[106.3001 -6.7667 107.3001 -5.7667],1.365,0.701,2.421,1.765,1.281,0.598,2.246,1.57,89.0,536.0
2015-02-16,Jakarta,Indonesia,106.8001,-6.2667,[106.3001 -6.7667 107.3001 -5.7667],1.365,0.701,2.421,1.741,1.32,0.655,2.437,1.684,93.0,504.0
2015-02-17,Jakarta,Indonesia,106.8001,-6.2667,[106.3001 -6.7667 107.3001 -5.7667],1.365,0.701,2.421,1.741,1.363,0.688,2.471,1.701,93.0,524.0
2015-02-18,Jakarta,Indonesia,106.8001,-6.2667,[106.3001 -6.7667 107.3001 -5.7667],1.217,0.701,2.073,1.615,1.453,0.727,2.544,1.761,93.0,509.0
2015-02-19,Jakarta,Indonesia,106.8001,-6.2667,[106.3001 -6.7667 107.3001 -5.7667],1.217,0.701,2.073,1.602,1.541,0.789,2.595,1.844,107.0,535.0
2015-02-20,Jakarta,Indonesia,106.8001,-6.2667,[106.3001 -6.7667 107.3001 -5.7667],1.181,0.686,2.055,1.577,1.538,0.799,2.602,1.846,108.0,519.0
2015-02-21,Jakarta,Indonesia,106.8001,-6.2667,[106.3001 -6.7667 107.3001 -5.7667],1.221,0.701,2.131,1.694,1.575,0.839,2.642,1.909,109.0,520.0
2015-02-22,Jakarta,Indonesia,106.8001,-6.2667,[106.3001 -6.7667 107.3001 -5.7667],1.44,0.825,2.421,1.875,1.594,0.863,2.683,1.933,99.0,532.0
2015-02-23,Jakarta,Indonesia,106.8001,-6.2667,[106.3001 -6.7667 107.3001 -5.7667],1.44,0.825,2.421,1.875,1.586,0.793,2.679,1.908,99.0,508.0
2015-02-24,Jakarta,Indonesia,106.8001,-6.2667,[106.3001 -6.7667 107.3001 -5.7667],1.546,0.842,2.716,2.025,1.605,0.792,2.759,1.975,84.0,524.0
2015-02-25,Jakarta,Indonesia,106.8001,-6.2667,[106.3001 -6.7667 107.3001 -5.7667],1.546,0.842,2.716,2.025,1.715,0.881,2.859,2.043,84.0,503.0
2015-02-26,Jakarta,Indonesia,106.8001,-6.2667,[106.3001 -6.7667 107.3001 -5.7667],1.546,0.842,2.716,2.025,1.833,0.922,2.829,2.078,84.0,558.0
2015-02-27,Jakarta,Indonesia,106.8001,-6.2667,[106.3001 -6.7667 107.3001 -5.7667],1.711,0.972,2.653,2.028,1.828,0.94,2.806,2.07,96.0,538.0
2015-02-28,Jakarta,Indonesia,106.8001,-6.2667,[106.3001 -6.7667 107.3001 -5.7667],1.635,0.932,2.644,1.986,1.767,0.938,2.704,2.018,104.0,551.0
2015-03-01,Jakarta,Indonesia,106.8001,-6.2667,[106.3001 -6.7667 107.3001 -5.7667],1.543,0.842,2.543,1.821,1.706,0.957,2.656,1.975,78.0,549.0
2015-03-02,Jakarta,Indonesia,106.8001,-6.2667,[106.3001 -6.7667 107.3001 -5.7667],1.543,0.842,2.543,1.833,1.62,0.974,2.713,1.997,66.0,538.0
2015-03-03,Jakarta,Indonesia,106.8001,-6.2667,[106.3001 -6.7667 107.3001 -5.7667],1.551,0.842,2.543,1.754,1.611,0.935,2.684,1.938,77.0,560.0
2015-03-04,Jakarta,Indonesia,106.8001,-6.2667,[106.3001 -6.7667 107.3001 -5.7667],1.601,0.842,2.632,1.774,1.632,0.944,2.758,1.935,81.0,531.0
2015-03-05,Jakarta,Indonesia,106.8001,-6.2667,[106.3001 -6.7667 107.3001 -5.7667],1.807,0.905,2.644,1.917,1.615,0.909,2.71,1.931,74.0,549.0
2015-03-06,Jakarta,Indonesia,106.8001,-6.2667,[106.3001 -6.7667 107.3001 -5.7667],2.022,1.003,2.66,1.93,1.506,0.891,2.6,1.871,64.0,531.0
2015-03-07,Jakarta,Indonesia,106.8001,-6.2667,[106.3001 -6.7667 107.3001 -5.7667],2.161,1.003,2.773,2.014,1.514,0.906,2.665,1.874,59.0,557.0
2015-03-08,Jakarta,Indonesia,106.8001,-6.2667,[106.3001 -6.7667 107.3001 -5.7667],1.807,1.003,2.644,1.794,1.481,0.896,2.652,1.878,56.0,542.0
2015-03-09,Jakarta,Indonesia,106.8001,-6.2667,[106.3001 -6.7667 107.3001 -5.7667],2.141,1.003,2.644,1.927,1.574,0.902,2.621,1.904,66.0,543.0
2015-03-10,Jakarta,Indonesia,106.8001,-6.2667,[106.3001 -6.7667 107.3001 -5.7667],2.124,1.016,2.693,1.976,1.657,1.002,2.771,2.008,86.0,554.0
2015-03-11,Jakarta,Indonesia,106.8001,-6.2667,[106.3001 -6.7667 107.3001 -5.7667],2.095,1.003,2.896,2.226,1.698,0.997,2.796,2.071,105.0,529.0
2015-03-12,Jakarta,Indonesia,106.8001,-6.2667,[106.3001 -6.7667 107.3001 -5.7667],2.095,1.003,2.896,2.226,1.762,1.023,2.904,2.15,105.0,547.0
2015-03-13,Jakarta,Indonesia,106.8001,-6.2667,[106.3001 -6.7667 107.3001 -5.7667],1.877,0.895,2.644,2.005,1.727,0.985,2.814,2.108,127.0,526.0
2015-03-14,Jakarta,Indonesia,106.8001,-6.2667,[106.3001 -6.7667 107.3001 -5.7667],1.713,0.822,2.773,1.999,1.679,0.974,2.868,2.119,115.0,557.0
2015-03-15,Jakarta,Indonesia,106.8001,-6.2667,[106.3001 -6.7667 107.3001 -5.7667],1.807,0.877,2.856,2.031,1.826,1.032,2.934,2.186,107.0,514.0
2015-03-16,Jakarta,Indonesia,106.8001,-6.2667,[106.3001 -6.7667 107.3001 -5.7667],1.918,0.937,2.932,2.275,1.901,1.045,2.917,2.271,135.0,524.0
2015-03-17,Jakarta,Indonesia,106.8001,-6.2667,[106.3001 -6.7667 107.3001 -5.7667],1.877,0.895,2.856,2.201,1.934,1.029,2.989,2.285,134.0,522.0
2015-03-18,Jakarta,Indonesia,106.8001,-6.2667,[106.3001 -6.7667 107.3001 -5.7667],1.895,0.937,2.856,2.29,1.892,1.03,2.954,2.24,119.0,509.0
2015-03-19,Jakarta,Indonesia,106.8001,-6.2667,[106.3001 -6.7667 107.3001 -5.7667],1.877,0.937,2.932,2.373,1.872,1.014,2.996,2.264,127.0,528.0
2015-03-20,Jakarta,Indonesia,106.8001,-6.2667,[106.3001 -6.7667 107.3001 -5.7667],1.975,1.005,3.572,2.535,1.925,1.038,3.223,2.34,137.0,499.0
2015-03-21,Jakarta,Indonesia,106.8001,-6.2667,[106.3001 -6.7667 107.3001 -5.7667],1.996,0.99,3.749,2.566,1.944,1.054,3.166,2.331,133.0,521.0
2015-03-22,Jakarta,Indonesia,106.8001,-6.2667,[106.3001 -6.7667 107.3001 -5.7667],1.877,0.969,3.132,2.387,1.94,1.044,3.006,2.331,147.0,504.0
2015-03-23,Jakarta,Indonesia,106.8001,-6.2667,[106.3001 -6.7667 107.3001 -5.7667],1.923,0.948,3.132,2.455,1.93,1.062,2.875,2.312,172.0,528.0
2015-03-24,Jakarta,Indonesia,106.8001,-6.2667,[106.3001 -6.7667 107.3001 -5.7667],1.821,0.953,2.999,2.351,1.881,1.047,2.878,2.281,171.0,516.0
2015-03-25,Jakarta,Indonesia,106.8001,-6.2667,[106.3001 -6.7667 107.3001 -5.7667],1.821,0.953,3.102,2.376,1.873,1.021,2.869,2.253,160.0,515.0
2015-03-26,Jakarta,Indonesia,106.8001,-6.2667,[106.3001 -6.7667 107.3001 -5.7667],1.821,0.969,2.932,2.322,1.883,1.026,2.81,2.241,146.0,526.0
2015-03-27,Jakarta,Indonesia,106.8001,-6.2667,[106.3001 -6.7667 107.3001 -5.7667],1.821,0.969,2.932,2.322,1.81,0.991,2.699,2.108,146.0,499.0
2015-03-28,Jakarta,Indonesia,106.8001,-6.2667,[106.3001 -6.7667 107.3001 -5.7667],1.925,1.099,3.528,2.639,1.852,1.032,3.016,2.279,124.0,514.0
2015-03-29,Jakarta,Indonesia,106.8001,-6.2667,[106.3001 -6.7667 107.3001 -5.7667],1.821,1.099,3.132,2.512,1.793,1.025,2.929,2.227,133.0,495.0
2015-03-30,Jakarta,Indonesia,106.8001,-6.2667,[106.3001 -6.7667 107.3001 -5.7667],1.821,1.099,3.132,2.508,1.775,0.992,2.893,2.186,135.0,547.0
2015-03-31,Jakarta,Indonesia,106.8001,-6.2667,[106.3001 -6.7667 107.3001 -5.7667],1.586,1.047,2.773,2.277,1.787,0.999,2.894,2.183,107.0,532.0
2015-04-01,Jakarta,Indonesia,106.8001,-6.2667,[106.3001 -6.7667 107.3001 -5.7667],1.586,1.056,2.773,2.264,1.743,0.972,2.861,2.155,119.0,543.0
2015-04-02,Jakarta,Indonesia,106.8001,-6.2667,[106.3001 -6.7667 107.3001 -5.7667],1.586,1.047,2.753,2.238,1.754,0.922,2.907,2.176,126.0,542.0
2015-04-03,Jakarta,Indonesia,106.8001,-6.2667,[106.3001 -6.7667 107.3001 -5.7667],1.811,1.074,3.132,2.366,1.797,0.951,2.965,2.231,140.0,531.0
2015-04-04,Jakarta,Indonesia,106.8001,-6.2667,[106.3001 -6.7667 107.3001 -5.7667],1.753,1.031,2.489,2.248,1.792,0.954,2.808,2.169,142.0,551.0
2015-04-05,Jakarta,Indonesia,106.8001,-6.2667,[106.3001 -6.7667 107.3001 -5.7667],1.586,0.976,2.468,2.168,1.698,0.947,2.828,2.141,149.0,520.0
2015-04-06,Jakarta,Indonesia,106.8001,-6.2667,[106.3001 -6.7667 107.3001 -5.7667],1.686,1.028,2.833,2.357,1.714,0.965,2.845,2.151,135.0,541.0
2015-04-07,Jakarta,Indonesia,106.8001,-6.2667,[106.3001 -6.7667 107.3001 -5.7667],1.505,0.953,2.468,2.151,1.835,0.944,2.875,2.175,115.0,526.0
2015-04-08,Jakarta,Indonesia,106.8001,-6.2667,[106.3001 -6.7667 107.3001 -5.7667],1.753,1.0,2.786,2.39,1.942,1.016,2.995,2.277,123.0,547.0
2015-04-09,Jakarta,Indonesia,106.8001,-6.2667,[106.3001 -6.7667 107.3001 -5.7667],1.371,0.856,2.544,2.241,1.943,1.043,3.107,2.309,121.0,537.0
2015-04-10,Jakarta,Indonesia,106.8001,-6.2667,[106.3001 -6.7667 107.3001 -5.7667],1.371,0.842,2.498,2.149,1.896,1.009,2.971,2.243,116.0,538.0
2015-04-11,Jakarta,Indonesia,106.8001,-6.2667,[106.3001 -6.7667 107.3001 -5.7667],1.371,0.856,2.468,2.138,1.903,0.995,2.959,2.228,124.0,553.0
2015-04-12,Jakarta,Indonesia,106.8001,-6.2667,[106.3001 -6.7667 107.3001 -5.7667],1.694,1.002,2.65,2.2,1.878,0.966,2.868,2.127,137.0,526.0
2015-04-13,Jakarta,Indonesia,106.8001,-6.2667,[106.3001 -6.7667 107.3001 -5.7667],1.753,1.0,3.251,2.296,1.905,0.979,2.997,2.171,128.0,541.0
2015-04-14,Jakarta,Indonesia,106.8001,-6.2667,[106.3001 -6.7667 107.3001 -5.7667],1.793,1.0,3.107,2.276,1.916,0.994,2.959,2.19,134.0,521.0
2015-04-15,Jakarta,Indonesia,106.8001,-6.2667,[106.3001 -6.7667 107.3001 -5.7667],1.793,1.0,3.107,2.276,1.83,0.996,2.955,2.166,134.0,550.0
2015-04-16,Jakarta,Indonesia,106.8001,-6.2667,[106.3001 -6.7667 107.3001 -5.7667],1.843,1.0,3.254,2.324,1.881,1.044,3.002,2.203,116.0,510.0
2015-04-17,Jakarta,Indonesia,106.8001,-6.2667,[106.3001 -6.7667 107.3001 -5.7667],1.855,1.002,3.254,2.339,1.957,1.072,2.983,2.208,114.0,523.0
2015-04-18,Jakarta,Indonesia,106.8001,-6.2667,[106.3001 -6.7667 107.3001 -5.7667],1.757,1.0,2.577,2.071,1.893,1.058,2.924,2.108,90.0,522.0
2015-04-19,Jakarta,Indonesia,106.8001,-6.2667,[106.3001 -6.7667 107.3001 -5.7667],1.737,0.93,2.416,1.885,1.878,1.062,2.918,2.117,96.0,510.0
2015-04-20,Jakarta,Indonesia,106.8001,-6.2667,[106.3001 -6.7667 107.3001 -5.7667],1.757,1.002,2.495,1.969,1.915,1.091,2.934,2.122,92.0,531.0
2015-04-21,Jakarta,Indonesia,106.8001,-6.2667,[106.3001 -6.7667 107.3001 -5.7667],1.793,1.002,2.577,1.953,1.928,0.998,2.904,2.088,103.0,503.0
2015-04-22,Jakarta,Indonesia,106.8001,-6.2667,[106.3001 -6.7667 107.3001 -5.7667],1.978,1.147,2.763,2.076,1.973,1.061,2.937,2.159,94.0,524.0
2015-04-23,Jakarta,Indonesia,106.8001,-6.2667,[106.3001 -6.7667 107.3001 -5.7667],1.747,0.93,2.577,1.783,1.867,1.021,2.812,2.03,93.0,510.0
2015-04-24,Jakarta,Indonesia,106.8001,-6.2667,[106.3001 -6.7667 107.3001 -5.7667],1.775,0.941,2.695,1.851,1.816,0.968,2.712,1.985,94.0,533.0
2015-04-25,Jakarta,Indonesia,106.8001,-6.2667,[106.3001 -6.7667 107.3001 -5.7667],1.775,0.941,2.695,1.864,1.746,0.957,2.735,2.062,95.0,518.0
2015-04-26,Jakarta,Indonesia,106.8001,-6.2667,[106.3001 -6.7667 107.3001 -5.7667],1.775,0.93,2.695,1.887,1.828,0.97,2.93,2.15,90.0,520.0
2015-04-27,Jakarta,Indonesia,106.8001,-6.2667,[106.3001 -6.7667 107.3001 -5.7667],1.943,0.875,2.695,1.999,1.912,0.991,3.057,2.267,85.0,534.0
2015-04-28,Jakarta,Indonesia,106.8001,-6.2667,[106.3001 -6.7667 107.3001 -5.7667],1.852,0.875,2.763,2.103,1.835,0.993,2.998,2.281,99.0,513.0
2015-04-29,Jakarta,Indonesia,106.8001,-6.2667,[106.3001 -6.7667 107.3001 -5.7667],1.775,0.875,2.763,2.112,1.839,0.994,3.065,2.276,91.0,530.0
2015-04-30,Jakarta,Indonesia,106.8001,-6.2667,[106.3001 -6.7667 107.3001 -5.7667],1.978,0.982,2.763,2.098,1.863,0.996,3.029,2.259,110.0,507.0
2015-05-01,Jakarta,Indonesia,106.8001,-6.2667,[106.3001 -6.7667 107.3001 -5.7667],1.978,0.982,2.763,2.098,1.888,0.97,3.069,2.291,110.0,561.0
2015-05-02,Jakarta,Indonesia,106.8001,-6.2667,[106.3001 -6.7667 107.3001 -5.7667],1.978,0.984,2.763,2.09,1.932,0.986,3.172,2.368,117.0,540.0
2015-05-03,Jakarta,Indonesia,106.8001,-6.2667,[106.3001 -6.7667 107.3001 -5.7667],1.943,0.984,2.763,2.095,1.97,1.059,3.201,2.389,138.0,554.0
2015-05-04,Jakarta,Indonesia,106.8001,-6.2667,[106.3001 -6.7667 107.3001 -5.7667],1.857,1.077,2.791,2.13,1.956,1.062,3.227,2.405,125.0,552.0
2015-05-05,Jakarta,Indonesia,106.8001,-6.2667,[106.3001 -6.7667 107.3001 -5.7667],2.063,1.089,2.897,2.291,2.038,1.067,3.199,2.459,142.0,538.0
2015-05-06,Jakarta,Indonesia,106.8001,-6.2667,[106.3001 -6.7667 107.3001 -5.7667],2.048,1.077,2.928,2.285,2.144,1.114,3.358,2.525,143.0,555.0
2015-05-07,Jakarta,Indonesia,106.8001,-6.2667,[106.3001 -6.7667 107.3001 -5.7667],1.999,1.049,2.912,2.261,2.1,1.117,3.277,2.488,145.0,527.0
2015-05-08,Jakarta,Indonesia,106.8001,-6.2667,[106.3001 -6.7667 107.3001 -5.7667],2.14,1.229,3.121,2.472,2.12,1.165,3.381,2.563,127.0,547.0
2015-05-09,Jakarta,Indonesia,106.8001,-6.2667,[106.3001 -6.7667 107.3001 -5.7667],1.999,1.229,2.928,2.375,2.111,1.161,3.345,2.587,131.0,531.0
2015-05-10,Jakarta,Indonesia,106.8001,-6.2667,[106.3001 -6.7667 107.3001 -5.7667],2.048,1.229,3.03,2.448,2.194,1.251,3.421,2.626,159.0,559.0
2015-05-11,Jakarta,Indonesia,106.8001,-6.2667,[106.3001 -6.7667 107.3001 -5.7667],1.904,1.224,2.898,2.334,2.158,1.282,3.317,2.573,167.0,540.0
2015-05-12,Jakarta,Indonesia,106.8001,-6.2667,[106.3001 -6.7667 107.3001 -5.7667],1.917,1.229,2.928,2.373,2.138,1.273,3.324,2.55,180.0,542.0
2015-05-13,Jakarta,Indonesia,106.8001,-6.2667,[106.3001 -6.7667 107.3001 -5.7667],2.059,1.25,3.042,2.534,2.26,1.256,3.344,2.61,194.0,550.0
2015-05-14,Jakarta,Indonesia,106.8001,-6.2667,[106.3001 -6.7667 107.3001 -5.7667],2.14,1.266,3.061,2.545,2.238,1.206,3.361,2.614,217.0,529.0
2015-05-15,Jakarta,Indonesia,106.8001,-6.2667,[106.3001 -6.7667 107.3001 -5.7667],2.14,1.266,3.434,2.623,2.291,1.267,3.472,2.667,198.0,547.0
2015-05-16,Jakarta,Indonesia,106.8001,-6.2667,[106.3001 -6.7667 107.3001 -5.7667],2.14,1.308,3.148,2.551,2.281,1.264,3.442,2.678,221.0,523.0
2015-05-17,Jakarta,Indonesia,106.8001,-6.2667,[106.3001 -6.7667 107.3001 -5.7667],2.167,1.308,3.402,2.6,2.326,1.275,3.445,2.665,209.0,557.0
2015-05-18,Jakarta,Indonesia,106.8001,-6.2667,[106.3001 -6.7667 107.3001 -5.7667],2.167,1.308,3.402,2.632,2.334,1.291,3.501,2.706,186.0,513.0
2015-05-19,Jakarta,Indonesia,106.8001,-6.2667,[106.3001 -6.7667 107.3001 -5.7667],2.319,1.424,3.62,2.867,2.313,1.331,3.541,2.754,205.0,528.0
2015-05-20,Jakarta,Indonesia,106.8001,-6.2667,[106.3001 -6.7667 107.3001 -5.7667],2.167,1.283,3.431,2.735,2.328,1.278,3.548,2.727,196.0,529.0
2015-05-21,Jakarta,Indonesia,106.8001,-6.2667,[106.3001 -6.7667 107.3001 -5.7667],2.319,1.371,3.73,2.976,2.355,1.268,3.615,2.763,205.0,518.0
2015-05-22,Jakarta,Indonesia,106.8001,-6.2667,[106.3001 -6.7667 107.3001 -5.7667],2.319,1.424,3.73,2.996,2.334,1.284,3.655,2.751,218.0,536.0
2015-05-23,Jakarta,Indonesia,106.8001,-6.2667,[106.3001 -6.7667 107.3001 -5.7667],2.379,1.445,3.861,3.097,2.346,1.317,3.663,2.78,236.0,510.0
2015-05-24,Jakarta,Indonesia,106.8001,-6.2667,[106.3001 -6.7667 107.3001 -5.7667],2.577,1.428,4.295,3.218,2.272,1.25,3.678,2.716,224.0,533.0
2015-05-25,Jakarta,Indonesia,106.8001,-6.2667,[106.3001 -6.7667 107.3001 -5.7667],2.422,1.283,3.861,3.068,2.208,1.23,3.529,2.658,204.0,516.0
2015-05-26,Jakarta,Indonesia,106.8001,-6.2667,[106.3001 -6.7667 107.3001 -5.7667],2.621,1.387,4.295,3.231,2.275,1.246,3.562,2.698,225.0,544.0
2015-05-27,Jakarta,Indonesia,106.8001,-6.2667,[106.3001 -6.7667 107.3001 -5.7667],2.484,1.307,3.816,3.058,2.183,1.24,3.493,2.682,216.0,526.0
2015-05-28,Jakarta,Indonesia,106.8001,-6.2667,[106.3001 -6.7667 107.3001 -5.7667],2.353,1.27,3.861,2.959,2.214,1.259,3.52,2.645,215.0,529.0
2015-05-29,Jakarta,Indonesia,106.8001,-6.2667,[106.3001 -6.7667 107.3001 -5.7667],2.392,1.249,4.154,2.999,2.259,1.27,3.743,2.728,214.0,538.0
2015-05-30,Jakarta,Indonesia,106.8001,-6.2667,[106.3001 -6.7667 107.3001 -5.7667],2.473,1.249,4.039,2.964,2.258,1.331,3.581,2.692,231.0,516.0
2015-05-31,Jakarta,Indonesia,106.8001,-6.2667,[106.3001 -6.7667 107.3001 -5.7667],2.656,1.225,4.412,3.111,2.258,1.255,3.677,2.682,208.0,534.0
2015-06-01,Jakarta,Indonesia,106.8001,-6.2667,[106.3001 -6.7667 107.3001 -5.7667],2.656,1.225,4.412,3.111,2.257,1.251,3.547,2.633,208.0,509.0
2015-06-02,Jakarta,Indonesia,106.8001,-6.2667,[106.3001 -6.7667 107.3001 -5.7667],2.656,1.225,4.412,3.111,2.165,1.173,3.564,2.575,208.0,563.0
2015-06-03,Jakarta,Indonesia,106.8001,-6.2667,[106.3001 -6.7667 107.3001 -5.7667],2.288,1.15,4.171,2.775,2.114,1.128,3.467,2.485,191.0,540.0
2015-06-04,Jakarta,Indonesia,106.8001,-6.2667,[106.3001 -6.7667 107.3001 -5.7667],2.602,1.175,4.412,3.006,2.182,1.167,3.485,2.536,203.0,552.0
2015-06-05,Jakarta,Indonesia,106.8001,-6.2667,[106.3001 -6.7667 107.3001 -5.7667],2.406,1.153,4.126,2.774,2.059,1.161,3.343,2.425,198.0,551.0
2015-06-06,Jakarta,Indonesia,106.8001,-6.2667,[106.3001 -6.7667 107.3001 -5.7667],2.602,1.191,4.412,3.008,2.154,1.213,3.469,2.522,205.0,540.0
2015-06-07,Jakarta,Indonesia,106.8001,-6.2667,[106.3001 -6.7667 107.3001 -5.7667],2.497,1.166,4.204,2.97,2.103,1.17,3.363,2.462,209.0,556.0
2015-06-08,Jakarta,Indonesia,106.8001,-6.2667,[106.3001 -6.7667 107.3001 -5.7667],2.518,1.175,4.204,2.994,2.265,1.197,3.443,2.555,219.0,526.0
2015-06-09,Jakarta,Indonesia,106.8001,-6.2667,[106.3001 -6.7667 107.3001 -5.7667],2.672,1.349,4.412,3.156,2.144,1.243,3.392,2.526,210.0,549.0
2015-06-10,Jakarta,Indonesia,106.8001,-6.2667,[106.3001 -6.7667 107.3001 -5.7667],2.473,1.268,4.039,2.913,2.141,1.23,3.341,2.495,202.0,533.0
2015-06-11,Jakarta,Indonesia,106.8001,-6.2667,[106.3001 -6.7667 107.3001 -5.7667],2.694,1.263,4.44,3.045,2.195,1.253,3.511,2.557,223.0,562.0
2015-06-12,Jakarta,Indonesia,106.8001,-6.2667,[106.3001 -6.7667 107.3001 -5.7667],2.574,1.275,4.292,3.005,2.153,1.237,3.482,2.541,213.0,546.0
2015-06-13,Jakarta,Indonesia,106.8001,-6.2667,[106.3001 -6.7667 107.3001 -5.7667],2.55,1.263,4.44,3.053,2.13,1.251,3.442,2.499,216.0,546.0
2015-06-14,Jakarta,Indonesia,106.8001,-6.2667,[106.3001 -6.7667 107.3001 -5.7667],2.548,1.263,4.445,3.118,2.152,1.235,3.444,2.544,228.0,558.0
2015-06-15,Jakarta,Indonesia,106.8001,-6.2667,[106.3001 -6.7667 107.3001 -5.7667],2.694,1.274,4.603,3.167,2.253,1.238,3.576,2.644,247.0,534.0
2015-06-16,Jakarta,Indonesia,106.8001,-6.2667,[106.3001 -6.7667 107.3001 -5.7667],2.694,1.274,4.603,3.167,2.272,1.278,3.576,2.672,247.0,552.0